User: anonymous   Login
Location: Unspecified
(0.0000°N, 0.0000°E)
Time: 09:05:25
(UTC+00:00)
Language:

TOPSAT - Orbit

View from above orbital plane
View from above orbital plane
View from above satellite
View from above satellite

Ground track
Ground track

The orbit data is extracted from the following two-line orbital elements,

1 28891U 05043B   24113.89801526  .00002074  00000-0  41575-3 0  9998
2 28891  98.2030 239.7529 0015548 220.3691 139.6358 14.62745177985703
Epoch (UTC): 22 April 2024 21:33:08
Eccentricity: 0.0015548
inclination: 98.2030°
perigee height: 673 km
apogee height: 695 km
right ascension of ascending node: 239.7529°
argument of perigee: 220.3691°
revolutions per day: 14.62745177
mean anomaly at epoch: 139.6358°
orbit number at epoch: 98570

The dashed part of the orbit path shows where the satellite is in the earth's shadow,  

DLR